RCF3143 UUEE-ENFB

Flight info

Callsign RCF3143
Flight time N/A
Altitude 34000
Route TOKNU3H TOKNU L4 NUDKO T561 ODATI P145 ATLUM T561 LEDUN/N0479F340 DCT KELAS DCT ESEBA
Aircraft MD11/H-SDE1E2E3FGHIJ2J3J4J5M1RWXY/LB1D1

Departure

Time 2026-05-07 14:44
Airport Sheremetyevo International Airport (UUEE)

Arrival

Time N/A
Airport Statfjord B (ENFB)
Time Latitude Longitude Altitude Speed Heading
2026-05-07 14:17 55.97118 37.43771 646 ft 0 kts 165°
2026-05-07 14:34 55.97121 37.43770 646 ft 3 kts 165°
2026-05-07 14:34 55.97142 37.43759 648 ft 3 kts 166°
2026-05-07 14:35 55.97156 37.43751 649 ft 3 kts 199°
2026-05-07 14:35 55.97172 37.43761 649 ft 3 kts 222°
2026-05-07 14:35 55.97182 37.43781 650 ft 3 kts 261°
2026-05-07 14:35 55.97184 37.43817 651 ft 1 kts 255°
2026-05-07 14:36 55.97185 37.43818 651 ft 0 kts 255°
2026-05-07 14:40 55.97184 37.43816 646 ft 1 kts 255°
2026-05-07 14:40 55.97179 37.43779 646 ft 5 kts 255°
2026-05-07 14:40 55.97166 37.43698 647 ft 9 kts 255°
2026-05-07 14:40 55.97148 37.43575 646 ft 10 kts 255°
2026-05-07 14:41 55.97136 37.43494 646 ft 7 kts 256°
2026-05-07 14:41 55.97121 37.43394 646 ft 10 kts 255°
2026-05-07 14:41 55.97101 37.43259 646 ft 13 kts 255°
2026-05-07 14:41 55.97084 37.43144 649 ft 4 kts 259°
2026-05-07 14:42 55.97087 37.43125 646 ft 1 kts 289°
2026-05-07 14:42 55.97095 37.43117 646 ft 3 kts 322°
2026-05-07 14:42 55.97133 37.43086 646 ft 8 kts 339°
2026-05-07 14:42 55.97201 37.43048 646 ft 12 kts 346°
2026-05-07 14:43 55.97273 37.43017 647 ft 9 kts 344°
2026-05-07 14:43 55.97322 37.42992 648 ft 6 kts 344°
2026-05-07 14:43 55.97347 37.42961 648 ft 5 kts 313°
2026-05-07 14:43 55.97348 37.42870 648 ft 13 kts 255°
2026-05-07 14:44 55.97280 37.42416 647 ft 75 kts 255°
2026-05-07 14:44 55.97083 37.41090 649 ft 143 kts 255°
2026-05-07 14:44 55.96776 37.39091 729 ft 181 kts 256°
2026-05-07 14:44 55.96435 37.36969 1453 ft 173 kts 257°
2026-05-07 14:45 55.96103 37.34993 2353 ft 164 kts 255°
2026-05-07 14:45 55.95796 37.33006 3022 ft 167 kts 255°
2026-05-07 14:45 55.95506 37.30982 3700 ft 169 kts 256°
2026-05-07 14:45 55.95219 37.28960 4373 ft 168 kts 255°
2026-05-07 14:46 55.94927 37.26932 4988 ft 168 kts 255°
2026-05-07 14:46 55.94634 37.24915 5583 ft 168 kts 255°
2026-05-07 14:46 55.94437 37.23562 5869 ft 171 kts 255°
2026-05-07 14:46 55.94136 37.21512 6238 ft 171 kts 254°
2026-05-07 14:47 55.93832 37.19458 6613 ft 172 kts 254°
2026-05-07 14:47 55.93526 37.17399 7091 ft 170 kts 255°
2026-05-07 14:47 55.93221 37.15342 7561 ft 173 kts 254°
2026-05-07 14:47 55.92899 37.13191 7990 ft 183 kts 254°
2026-05-07 14:48 55.92566 37.10976 8599 ft 187 kts 254°
2026-05-07 14:48 55.92225 37.08703 9016 ft 189 kts 254°
2026-05-07 14:48 55.91884 37.06441 9399 ft 189 kts 254°
2026-05-07 14:48 55.91542 37.04174 9780 ft 190 kts 254°
2026-05-07 14:49 55.91409 37.01823 9939 ft 195 kts 278°
2026-05-07 14:49 55.92103 36.99762 9997 ft 207 kts 310°
2026-05-07 14:49 55.93246 36.98112 10008 ft 215 kts 315°
2026-05-07 14:49 55.94477 36.96500 10025 ft 232 kts 315°